Regional Weather Roundup
Issued by NWS Upton, NY

Current Version | Previous Version | Text Only | Print | Product List | Glossary On
Versions: 1 2 3 4 5 6 7 8 9 10 11 12 13 14 15 16 17 18 19 20 21 22 23 24 25 26 27
000
ASUS41 KOKX 241205
RWROKX

REGIONAL WEATHER ROUNDUP
NATIONAL WEATHER SERVICE NEW YORK NY
800 AM EDT FRI OCT 24 2014

NOTE: "FAIR" INDICATES FEW OR NO CLOUDS BELOW 12,000 FEET WITH NO
SIGNIFICANT WEATHER AND/OR OBSTRUCTIONS TO VISIBILITY.

NYZ071-072-176-178-NJZ106-104-241300-
NEW YORK CITY METRO AREA


CITY           SKY/WX    TMP DP  RH WIND       PRES   REMARKS
CENTRAL PARK   MOCLDY    51  43  74 MISG      29.83S
LAGUARDIA APRT MOCLDY    52  44  74 NW10      29.81R
KENNEDY INTL   MOCLDY    52  43  71 NW12      29.81R
NEWARK/LIBERTY MOCLDY    52  44  74 NW10      29.81F
BRNX BOT. GARD   N/A     50  43  76 NW3       29.81F
TETERBORO      MOCLDY    52  43  71 NW9       29.80S
$$

NYZ177-179-078>081-241300-
LONG ISLAND NEW YORK

CITY           SKY/WX    TMP DP  RH WIND       PRES   REMARKS
FARMINGDALE    CLOUDY    51  45  79 NW9       29.80R
ISLIP          LGT RAIN  50  46  86 NW12      29.77R
SHIRLEY        LGT RAIN  50  46  86 N12       29.77S
WESTHAMPTON    LGT RAIN  51  46  83 NW12      29.76S
MONTAUK POINT    N/A     52  48  86 NW14G22   29.74R
$$

NYZ052-065-067-241300-
HUDSON VALLEY

CITY           SKY/WX    TMP DP  RH WIND       PRES   REMARKS
WHITE PLAINS   MOCLDY    49  44  83 N8        29.80R
NEWBURGH       CLOUDY    48  45  87 VRB5      29.83R
MONTGOMERY     CLOUDY    50  42  74 NW9       29.81R
POUGHKEEPSIE   CLOUDY    49  44  83 CALM      29.82R
ALBANY         LGT RAIN  46  43  89 N6        29.85R FOG
$$

NJZ001-105-106-008-010-013-015-019>022-104-241300-
NEW JERSEY

CITY           SKY/WX    TMP DP  RH WIND       PRES   REMARKS
NEWARK/LIBERTY MOCLDY    52  44  74 NW10      29.81F
TETERBORO      MOCLDY    52  43  71 NW9       29.80S
CALDWELL       MOCLDY    51  41  68 NW10G21   29.82S
MORRISTOWN     CLOUDY    54  45  71 N12G24    29.82S
SOMERVILLE     CLOUDY    54  43  66 NW12G22   29.81R
SUSSEX         CLOUDY    52  42  69 N8G17     29.85R
ANDOVER          N/A     50  42  74 VRB6G18   29.84R
TRENTON        CLOUDY    54  44  69 NW7       29.83R
MILLVILLE      MOCLDY    54  46  74 W6        29.85S
ATLANTIC CITY  CLEAR     47  45  93 W3        29.84R
WRIGHTSTOWN    CLOUDY    53  46  75 NW13      29.81R
TOMS RIVER     PTCLDY    52  45  76 NW5       29.83R
BELMAR         PTCLDY    50  41  71 NW10      29.81R
$$

PAZ047>061-062-071-241300-
EASTERN PENNSYLVANIA

CITY           SKY/WX    TMP DP  RH WIND       PRES   REMARKS
PHILADELPHIA   MOCLDY    57  45  64 NW9       29.85F
ALLENTOWN      CLOUDY    54  41  61 NW18G25   29.87R
SCRANTON       CLOUDY    50  41  71 NW10      29.91R
$$

CTZ002-004>006-009-010-012-RIZ004-006-007-MAZ004-011-015-241300-
SOUTHERN NEW ENGLAND
 IN CT

CITY           SKY/WX    TMP DP  RH WIND       PRES   REMARKS
BRADLEY INTL   LGT RAIN  48  44  86 N8        29.75R
HARTFORD       LGT RAIN  48  45  89 VRB5      29.76R
DANBURY        LGT RAIN  47  42  83 NW12      29.81R
WTRBRY/OXFORD  LGT RAIN  46  39  76 NW5       29.78R FOG
BRIDGEPORT     RAIN      49  45  86 NW10      29.78R
MERIDEN        RAIN      48  44  86 NW8       29.77R FOG
NEW HAVEN      LGT RAIN  50  44  80 VRB6      29.77R
CHESTER        LGT RAIN  46  45  93 NW7       29.76R
GROTON         LGT RAIN  48  46  93 NW10      29.74R
WILLIMANTIC    LGT RAIN  49  45  86 NW7       29.74R

 IN RI

CITY           SKY/WX    TMP DP  RH WIND       PRES   REMARKS
PROVIDENCE     CLOUDY    51  47  86 NW12      29.70S
BLOCK ISLAND   CLOUDY    52  45  76 NW10G16   29.71R
WESTERLY       LGT RAIN  50  47  89 NW5       29.73R

 IN MA

CITY           SKY/WX    TMP DP  RH WIND       PRES   REMARKS
BOSTON         CLOUDY    48  48 100 NW10      29.70R FOG
WORCESTER      LGT RAIN  45  43  93 NW14      29.71R
WESTFIELD      LGT RAIN  47  43  86 N7        29.75S
PROVINCETOWN   CLOUDY    50  -2  11 N22G29    29.65R
NANTUCKET      CLOUDY    52  49  89 NW24G33   29.61R
$$

ANZ330-335-338-340-345-350-353-355-241300-
COASTAL MARINE OBSERVATIONS


STATION/POSITION TIME  SKY/WX   TEMP    WIND        PRES    VSBY  WAVE
                                AIR SEA DIR/SP/G                  HT/PER
                 (UTC)          (F)     (DEG/KT/KT) (MB)    (MI)  (FT/S)
NY HARB ENTRANCE NOT AVBL
4S FIRE IS       1200               63                N/A           3/10
20S FIRE ISLAND  1200            54 63  320/ 19/ 25 1007.9          4/ 5
23SW MTP         1200                                 N/A           5/ 5
HUDSON CANYON    1200            57 66  330/ 19/ 25 1007.0          8/ 7
EXECUTION ROCKS  1100            53 62  300/ 12/ 17   N/A
WESTERN LI SOUND 1100            52     320/ 10/ 12   N/A           0
CENTRAL LI SOUND 1100            53 63  330/ 16/ 19   N/A           2/ 3
EASTERN LI SOUND 1100            53 63  320/ 14/ 19   N/A
ROBBINS REEF     1200            52     320/ 12/ 15 1008.1
$$


>>>>>>>>>>>>>>>>>>>>>>>>>>>> KEY <<<<<<<<<<<<<<<<<<<<<<<<<<<
>                                                          <
>     SKY/WX - SKY CONDITION/PRESENT WEATHER               <
>     TMP    - TEMPERATURE IN FAHRENHEIT                   <
>     DP     - DEWPOINT IN FAHRENHEIT                      <
>     RH     - RELATIVE HUMIDITY IN PERCENT                <
>     WIND   - DIRECTION AND SPEED IN MPH                  <
>     PRES   - MEAN SEA LEVEL PRESSURE IN INCHES OF HG     <
>     WCI    - WIND CHILL INDEX                            <
>     VSB    - VISIBILITY IN MILES                         <
>     HX     - HEAT INDEX                                  <
>     TC     - TEMPERATURE IN CELSIUS                      <
>     VRB    - VARIABLE WIND DIRECTION                     <
>                                                          <
>>>>>>>>>>>>>>>>>>>>>>>>>>>> KEY <<<<<<<<<<<<<<<<<<<<<<<<<<<





USA.gov is the U.S. government's official web portal to all federal, state and local government web resources and services.